Regional Weather Roundup
Issued by NWS

Home | Current Version | Previous Version | Text Only | Print | Product List | Glossary On
Versions: 1 2 3 4 5 6 7 8 9 10 11 12 13 14 15 16 17 18 19 20 21 22 23 24 25 26 27
000
ASUS45 KCYS 130010
RWRWY

WYOMING REGIONAL WEATHER ROUNDUP
NATIONAL WEATHER SERVICE CHEYENNE WY
500 PM MST TUE DEC 12 2017

NOTE:  "FAIR" INDICATES FEW OR NO CLOUDS BELOW 12,000 FEET
WITH NO SIGNIFICANT WEATHER AND/OR OBSTRUCTIONS TO VISIBILITY.

WYZ001-130100-
YELLOWSTONE NATIONAL PARK

CITY           SKY/WX    TMP DP  RH WIND       PRES   REMARKS
LK YELLOWSTONE   N/A     21  17  84 CALM      30.39S
6HR MIN TEMP:  20; 6HR MAX TEMP:  33;

W YELLOWSTONE  NOT AVBL

$$
WYZ002>013-054>058-071-098>099-130100-
NORTHERN WYOMING

CITY           SKY/WX    TMP DP  RH WIND       PRES   REMARKS
JACKSON        FAIR      30  17  58 MISG      30.38S
CODY           FAIR      54   2  12 E7        30.16R
GREYBULL       FAIR      37  18  46 CALM      30.12S
6HR MIN TEMP:  28; 6HR MAX TEMP:  49;

WORLAND        FAIR      31  22  69 S3        30.11F
6HR MIN TEMP:  29; 6HR MAX TEMP:  51;

SHERIDAN       FAIR      47  15  27 W8        30.04R
6HR MIN TEMP:  47; 6HR MAX TEMP:  70;

BUFFALO        FAIR      58   5  12 N6        30.07R
6HR MIN TEMP:  56; 6HR MAX TEMP:  70;

GILLETTE       FAIR      46  21  37 W14       30.02R
6HR MIN TEMP:  44; 6HR MAX TEMP:  62;

HULETT         FAIR      45  23  42 MISG      30.00R
NEWCASTLE      FAIR      41  19  42 N10       30.01F

$$
WYZ014>020-022>026-101>103-130100-
CENTRAL WYOMING

CITY           SKY/WX    TMP DP  RH WIND       PRES   REMARKS
BIG PINEY      FAIR      39  -4  16 NE8       30.34F WCI  33
6HR MIN TEMP:  36; 6HR MAX TEMP:  57;

PINEDALE       FAIR      34  -4  19 W6        30.35R WCI  29
DUBOIS         FAIR      43  -2  15 NW13      30.26F
LANDER         FAIR      36  24  62 W5        30.17F WCI  32
6HR MIN TEMP:  31; 6HR MAX TEMP:  44;

RIVERTON       FAIR      28  17  63 NE5       30.20F WCI  23
6HR MIN TEMP:  26; 6HR MAX TEMP:  39;

CASPER         FAIR      45  17  32 SW18G36   30.15F
6HR MIN TEMP:  43; 6HR MAX TEMP:  48;

DOUGLAS        FAIR      44  21  40 NW8       30.11S
6HR MIN TEMP:  44; 6HR MAX TEMP:  58;


$$
WYZ021-027>030-104>119-130100-
SOUTHERN WYOMING

CITY           SKY/WX    TMP DP  RH WIND       PRES   REMARKS
EVANSTON       FAIR      42   9  25 SW9       30.39F
FORT BRIDGER   FAIR      46   6  19 W15       30.38F
ROCK SPRINGS   FAIR      43   5  20 W14       30.33F
6HR MIN TEMP:  39; 6HR MAX TEMP:  50;

DIXON          FAIR      30  19  64 CALM      30.36F
RAWLINS        FAIR      43  14  31 VRB5      30.29R
6HR MIN TEMP:  39; 6HR MAX TEMP:  48;

SARATOGA       FAIR      32  23  69 S9G20     30.31S WCI  24
LARAMIE        FAIR      40   7  25 W17       30.24F WCI  31
6HR MIN TEMP:  39; 6HR MAX TEMP:  56;

CHEYENNE       FAIR      48  11  22 W15       30.18S
6HR MIN TEMP:  48; 6HR MAX TEMP:  61;

TORRINGTON     FAIR      53  15  22 W12       30.07R
6HR MIN TEMP:  52; 6HR MAX TEMP:  65;

PINE BLUFFS    FAIR      50   7  17 W3        30.13F

$$




USA.gov is the U.S. government's official web portal to all federal, state and local government web resources and services.